Location: East Guldeford
(50.9500°N, 0.7500°E)
Time: 09:52:52
(UTC+00:00)

Cosmos 2315 Rocket - Pass Details

Date: 12 May 2021
Orbit: 965 x 1003 km, 82.9° (Epoch: 16 June)

Event Time Altitude Azimuth Distance (km) Brightness Sun altitude
Rises 20:09:37 0° 171° (S) 3,712 6.6 -5.2°
Reaches altitude 10° 20:12:10 10° 167° (SSE) 2,768 5.9 -5.5°
Maximum altitude 20:18:20 55° 92° (E) 1,199 4.3 -6.3°
Drops below altitude 10° 20:24:33 10° 17° (NNE) 2,785 6.7 -7.0°
Sets 20:27:08 0° 13° (NNE) 3,736 7.5 -7.3°
